DW8344 Weather Reports


time (UTC)temp
C
wind
direction
speed
KPH
gust
KPH
rain 1hr
cm
rain 24hr
cm
rain mn
cm
humidity
%
barometer
mb
20260510224504 13 335 3.2 14.5 0.00 0.00 0.00 36 1019.4
20260510224213 13 314 3.2 14.5 0.00 0.00 0.00 35 1019.4
20260510223717 13 304 3.2 12.9 0.00 0.00 0.00 36 1019.4
20260510223004 13 334 6.4 12.9 0.00 0.00 0.00 37 1019.4
20260510222504 13 324 6.4 12.9 0.00 0.00 0.00 34 1019.4
20260510222004 13 324 4.8 14.5 0.00 0.00 0.00 33 1019.3
20260510221504 13 306 4.8 14.5 0.00 0.00 0.00 36 1019.3
20260510221003 13 279 4.8 12.9 0.00 0.00 0.00 34 1019.2
20260510220714 13 298 4.8 12.9 0.00 0.00 0.00 33 1019.2
20260510220004 13 327 4.8 14.5 0.00 0.00 0.00 36 1019.2
20260510215503 13 340 6.4 16.1 0.00 0.00 0.00 36 1019.2
20260510215004 14 345 4.8 16.1 0.00 0.00 0.00 36 1019.0
20260510214504 13 350 3.2 12.9 0.00 0.00 0.00 39 1019.1
20260510214003 13 349 4.8 16.1 0.00 0.00 0.00 34 1019.1
20260510213504 13 356 4.8 16.1 0.00 0.00 0.00 37 1019.1
20260510213004 13 350 4.8 12.9 0.00 0.00 0.00 36 1019.1
20260510212713 13 319 4.8 14.5 0.00 0.00 0.00 35 1019.1
20260510212216 13 330 4.8 14.5 0.00 0.00 0.00 38 1019.2
20260510211504 13 343 8.0 16.1 0.00 0.00 0.00 37 1019.2
20260510211004 13 337 8.0 16.1 0.00 0.00 0.00 36 1019.1
20260510210503 13 328 6.4 14.5 0.00 0.00 0.00 36 1019.1
20260510210004 13 309 4.8 12.9 0.00 0.00 0.00 37 1019.1
20260510205503 13 316 6.4 17.7 0.00 0.00 0.00 37 1019.1
20260510205004 13 313 6.4 17.7 0.00 0.00 0.00 36 1019.1
20260510204503 13 292 4.8 16.1 0.00 0.00 0.00 40 1019.0
20260510204003 13 296 4.8 16.1 0.00 0.00 0.00 38 1019.0
20260510203718 13 307 4.8 16.1 0.00 0.00 0.00 35 1019.1
20260510203004 13 331 4.8 12.9 0.00 0.00 0.00 37 1019.1
20260510202503 13 327 4.8 12.9 0.00 0.00 0.00 40 1019.1
20260510202217 13 327 6.4 14.5 0.00 0.00 0.00 34 1019.1
20260510201503 13 337 9.7 17.7 0.00 0.00 0.00 36 1019.2
20260510201213 13 340 9.7 17.7 0.00 0.00 0.00 36 1019.1
20260510200504 13 344 8.0 19.3 0.00 0.00 0.00 36 1019.2
20260510200004 12 341 9.7 19.3 0.00 0.00 0.00 37 1019.2
20260510195504 13 344 9.7 19.3 0.00 0.00 0.00 33 1019.3
20260510195003 13 346 11.3 20.9 0.00 0.00 0.00 36 1019.2
20260510194504 12 342 9.7 25.7 0.00 0.00 0.00 35 1019.2
20260510194216 13 341 9.7 25.7 0.00 0.00 0.00 37 1019.2
20260510193503 13 342 11.3 24.1 0.00 0.00 0.00 38 1019.0
20260510193003 13 341 9.7 22.5 0.00 0.00 0.00 39 1019.0
20260510192504 12 339 11.3 25.7 0.00 0.00 0.00 40 1019.0
20260510192003 12 332 9.7 25.7 0.00 0.00 0.00 40 1019.0
20260510191504 13 329 9.7 25.7 0.00 0.00 0.00 39 1018.9
20260510191003 13 330 9.7 19.3 0.00 0.00 0.00 38 1018.9
20260510190503 13 335 9.7 19.3 0.00 0.00 0.00 41 1018.8
20260510190004 13 341 12.9 25.7 0.00 0.00 0.00 41 1018.8
20260510185503 12 339 11.3 25.7 0.00 0.00 0.00 39 1018.8
20260510185004 13 340 9.7 20.9 0.00 0.00 0.00 39 1018.9
20260510184713 13 336 9.7 20.9 0.00 0.00 0.00 39 1018.8
20260510184004 13 333 9.7 22.5 0.00 0.00 0.00 41 1018.8
20260510183504 13 332 11.3 22.5 0.00 0.00 0.00 40 1018.8
20260510183217 13 332 9.7 22.5 0.00 0.00 0.00 39 1018.9
20260510182503 13 344 8.0 20.9 0.00 0.00 0.00 38 1018.9
20260510182003 13 336 8.0 19.3 0.00 0.00 0.00 41 1018.9
20260510181504 13 329 8.0 19.3 0.00 0.00 0.00 39 1018.9
20260510181004 13 336 9.7 17.7 0.00 0.00 0.00 39 1018.8
20260510180504 12 337 11.3 24.1 0.00 0.00 0.00 40 1018.8
20260510180004 13 336 9.7 24.1 0.00 0.00 0.00 40 1018.9
20260510175503 12 328 8.0 17.7 0.00 0.00 0.00 40 1018.8
20260510175003 12 326 9.7 27.4 0.00 0.00 0.00 39 1018.8
20260510174503 12 330 9.7 27.4 0.00 0.00 0.00 37 1018.8
20260510174004 13 318 6.4 24.1 0.00 0.00 0.00 39 1018.7
20260510173715 12 310 6.4 20.9 0.00 0.00 0.00 44 1018.7
20260510173004 12 322 9.7 20.9 0.00 0.00 0.00 39 1018.8
20260510172504 12 333 9.7 16.1 0.00 0.00 0.00 39 1018.8
20260510172006 12 336 9.7 29.0 0.00 0.00 0.00 39 1018.7
20260510171503 12 336 12.9 29.0 0.00 0.00 0.00 41 1018.8
20260510171003 12 336 11.3 24.1 0.00 0.00 0.00 40 1018.7
20260510170712 12 335 11.3 22.5 0.00 0.00 0.00 39 1018.7
20260510170004 12 342 9.7 22.5 0.00 0.00 0.00 38 1018.8
20260510165713 12 340 11.3 22.5 0.00 0.00 0.00 40 1018.8
20260510165003 12 342 9.7 22.5 0.00 0.00 0.00 39 1018.8
20260510164503 12 345 8.0 17.7 0.00 0.00 0.00 42 1018.9
20260510164003 12 321 8.0 17.7 0.00 0.00 0.00 44 1018.8
20260510163503 12 307 8.0 17.7 0.00 0.00 0.00 40 1018.9
20260510163003 12 336 8.0 16.1 0.00 0.00 0.00 43 1018.8
20260510162504 12 330 8.0 16.1 0.00 0.00 0.00 41 1018.8
20260510162003 12 309 8.0 19.3 0.00 0.00 0.00 42 1018.8
20260510161504 11 320 8.0 19.3 0.00 0.00 0.00 41 1018.7
20260510161003 11 326 9.7 20.9 0.00 0.00 0.00 41 1018.7
20260510160713 11 328 9.7 20.9 0.00 0.00 0.00 42 1018.7
20260510160003 11 332 8.0 16.1 0.00 0.00 0.00 45 1018.7
20260510155503 11 324 8.0 16.1 0.00 0.00 0.00 45 1018.7
20260510155004 11 317 8.0 16.1 0.00 0.00 0.00 45 1018.6
20260510154504 11 314 6.4 17.7 0.00 0.00 0.00 47 1018.6
20260510154213 11 317 6.4 19.3 0.00 0.00 0.00 50 1018.5
20260510153503 11 321 8.0 19.3 0.00 0.00 0.00 49 1018.5
20260510153004 11 320 8.0 19.3 0.00 0.00 0.00 49 1018.5
20260510152503 10 310 6.4 17.7 0.00 0.00 0.00 49 1018.5
20260510152003 10 308 4.8 17.7 0.00 0.00 0.00 52 1018.5
20260510151718 10 306 6.4 14.5 0.00 0.00 0.00 51 1018.5
20260510151004 10 302 4.8 12.9 0.00 0.00 0.00 53 1018.6
20260510150503 10 320 4.8 12.9 0.00 0.00 0.00 55 1018.6
20260510150004 8 320 4.8 12.9 0.00 0.00 0.00 56 1018.6
20260510145715 8 324 4.8 12.9 0.00 0.00 0.00 57 1018.6
20260510145003 9 328 6.4 14.5 0.00 0.00 0.00 57 1018.7
20260510144503 8 334 4.8 14.5 0.00 0.00 0.00 59 1018.6
20260510144004 8 338 4.8 9.7 0.00 0.00 0.00 61 1018.5
20260510143504 8 332 4.8 9.7 0.00 0.00 0.00 63 1018.5
20260510143004 8 332 6.4 14.5 0.00 0.00 0.00 63 1018.6
20260510142504 8 332 8.0 14.5 0.00 0.00 0.00 61 1018.5
20260510142004 8 332 4.8 12.9 0.00 0.00 0.00 63 1018.4
20260510141504 8 332 4.8 11.3 0.00 0.00 0.00 63 1018.5
20260510141003 8 332 4.8 9.7 0.00 0.00 0.00 65 1018.5
20260510140504 8 334 4.8 12.9 0.00 0.00 0.00 66 1018.5
20260510140004 8 338 4.8 12.9 0.00 0.00 0.00 65 1018.4
20260510135715 8 340 4.8 12.9 0.00 0.00 0.00 65 1018.4
20260510135213 8 341 6.4 11.3 0.00 0.00 0.00 66 1018.3
20260510134504 7 334 6.4 16.1 0.00 0.00 0.00 66 1018.3
20260510134214 8 336 6.4 16.1 0.00 0.00 0.00 65 1018.2
20260510133503 8 346 6.4 12.9 0.00 0.00 0.00 64 1018.1
20260510133003 8 349 6.4 12.9 0.00 0.00 0.00 66 1018.1
20260510132504 8 345 6.4 12.9 0.00 0.00 0.00 65 1018.0
20260510132004 8 341 6.4 12.9 0.00 0.00 0.00 65 1018.0
20260510131503 8 341 6.4 12.9 0.00 0.00 0.00 67 1018.0
20260510131003 7 338 4.8 12.9 0.00 0.00 0.00 65 1018.0
20260510130503 7 334 4.8 12.9 0.00 0.00 0.00 67 1018.0
20260510130004 7 336 4.8 12.9 0.00 0.00 0.00 66 1018.0
20260510125503 7 332 3.2 9.7 0.00 0.00 0.00 67 1018.0
20260510125214 7 332 3.2 6.4 0.00 0.00 0.00 69 1017.9
20260510124504 7 329 3.2 6.4 0.00 0.00 0.00 69 1017.8
20260510124004 7 324 1.6 6.4 0.00 0.00 0.00 71 1017.7
20260510123503 6 322 1.6 4.8 0.00 0.00 0.00 71 1017.6
20260510123003 6 313 0.0 3.2 0.00 0.00 0.00 71 1017.7
20260510122503 6 295 0.0 3.2 0.00 0.00 0.00 73 1017.6
20260510122003 5 287 0.0 1.6 0.00 0.00 0.00 75 1017.6
20260510121504 5 287 0.0 1.6 0.00 0.00 0.00 76 1017.5
20260510121004 5 287 0.0 1.6 0.00 0.00 0.00 79 1017.4
20260510120716 5 287 0.0 1.6 0.00 0.00 0.00 82 1017.4
20260510120214 4 0 0.0 0.0 0.00 0.00 0.00 82 1017.3
20260510115717 4 0 0.0 0.0 0.00 0.00 0.00 82 1017.2
20260510115003 4 0 0.0 0.0 0.00 0.00 0.00 79 1017.2
20260510114503 4 287 0.0 1.6 0.00 0.00 0.00 80 1017.2
20260510114004 4 287 0.0 1.6 0.00 0.00 0.00 80 1017.2
20260510113504 4 287 0.0 1.6 0.00 0.00 0.00 80 1017.1
20260510113216 3 287 0.0 1.6 0.00 0.00 0.00 80 1017.1
20260510112503 3 286 0.0 1.6 0.00 0.00 0.00 81 1016.9
20260510112003 3 286 0.0 1.6 0.00 0.00 0.00 81 1016.8
20260510111504 3 0 0.0 0.0 0.00 0.00 0.00 81 1016.8
20260510111003 3 0 0.0 0.0 0.00 0.00 0.00 80 1016.7
20260510110504 3 0 0.0 0.0 0.00 0.00 0.00 79 1016.7
20260510110004 3 0 0.0 0.0 0.00 0.00 0.00 79 1016.7
20260510105504 3 0 0.0 0.0 0.00 0.00 0.00 79 1016.6
20260510105004 3 286 0.0 1.6 0.00 0.00 0.00 79 1016.5
20260510104503 3 286 0.0 1.6 0.00 0.00 0.00 79 1016.4
20260510104216 3 286 0.0 1.6 0.00 0.00 0.00 78 1016.4
20260510103503 3 0 0.0 0.0 0.00 0.05 0.00 77 1016.3
20260510103217 3 286 0.0 1.6 0.00 0.08 0.00 77 1016.3
20260510102715 3 286 0.0 1.6 0.00 0.10 0.00 76 1016.2
20260510102004 3 0 0.0 0.0 0.00 0.15 0.00 77 1016.1
20260510101503 3 0 0.0 0.0 0.00 0.18 0.00 78 1016.0
20260510101003 3 0 0.0 0.0 0.00 0.18 0.00 78 1015.9
20260510100504 3 0 0.0 0.0 0.00 0.18 0.00 77 1015.8
20260510100004 3 286 0.0 1.6 0.00 0.18 0.00 77 1015.8
20260510095504 3 286 0.0 1.6 0.00 0.18 0.00 76 1015.8
20260510095004 3 286 0.0 1.6 0.00 0.18 0.00 74 1015.8
20260510094714 4 286 0.0 1.6 0.00 0.20 0.00 74 1015.7
20260510094003 4 322 0.0 3.2 0.00 0.20 0.00 74 1015.7
20260510093504 4 339 0.0 3.2 0.00 0.23 0.00 74 1015.7
20260510093004 3 337 0.0 3.2 0.00 0.23 0.00 74 1015.6
20260510092716 3 335 0.0 3.2 0.00 0.23 0.00 74 1015.6
20260510092004 3 0 0.0 0.0 0.00 0.25 0.00 77 1015.4
20260510091504 3 0 0.0 0.0 0.00 0.25 0.00 79 1015.5
20260510091004 3 0 0.0 0.0 0.00 0.25 0.00 80 1015.4
20260510090718 3 0 0.0 0.0 0.00 0.25 0.00 80 1015.3
20260510090004 2 0 0.0 0.0 0.00 0.25 0.00 80 1015.1
20260510085504 2 0 0.0 0.0 0.00 0.25 0.00 81 1015.0
20260510085003 2 0 0.0 0.0 0.00 0.25 0.00 81 1015.0
20260510084503 2 0 0.0 0.0 0.00 0.25 0.00 82 1014.9
20260510084004 1 354 0.0 1.6 0.00 0.25 0.00 82 1014.8
20260510083504 1 348 0.0 1.6 0.00 0.25 0.00 83 1014.7
20260510083004 1 337 0.0 1.6 0.00 0.25 0.00 84 1014.7
20260510082503 0 224 0.0 1.6 0.00 0.25 0.00 85 1014.5
20260510082004 1 0 0.0 0.0 0.00 0.25 0.00 85 1014.4
20260510081503 1 0 0.0 0.0 0.00 0.25 0.00 84 1014.4
20260510081003 1 0 0.0 0.0 0.00 0.25 0.00 83 1014.4
20260510080504 1 224 0.0 1.6 0.00 0.25 0.00 83 1014.3
20260510080004 1 224 0.0 1.6 0.00 0.25 0.00 84 1014.4
20260510075504 1 224 0.0 1.6 0.00 0.25 0.00 84 1014.3
20260510075004 0 224 0.0 1.6 0.00 0.25 0.00 85 1014.3
20260510074503 0 224 0.0 1.6 0.00 0.25 0.00 87 1014.3
20260510074003 0 228 0.0 1.6 0.00 0.25 0.00 87 1014.3
20260510073503 0 230 0.0 1.6 0.00 0.25 0.00 87 1014.2
20260510073214 0 250 0.0 1.6 0.00 0.25 0.00 87 1014.3
20260510072504 0 0 0.0 0.0 0.00 0.25 0.00 85 1014.3
20260510072004 0 0 0.0 0.0 0.00 0.25 0.00 85 1014.3
20260510071504 0 0 0.0 0.0 0.00 0.25 0.00 84 1014.2
20260510071004 0 0 0.0 0.0 0.00 0.25 0.00 83 1014.2
20260510070714 0 0 0.0 0.0 0.00 0.25 0.00 83 1014.2
20260510070004 0 0 0.0 0.0 0.00 0.25 0.00 83 1014.2
20260510065503 1 0 0.0 0.0 0.00 0.25 0.00 83 1014.1
20260510065004 1 0 0.0 0.0 0.00 0.25 0.00 82 1014.1
20260510064504 1 0 0.0 0.0 0.00 0.25 0.00 80 1014.1
20260510064003 1 0 0.0 0.0 0.00 0.25 0.00 79 1014.0
20260510063503 1 0 0.0 0.0 0.00 0.25 0.00 77 1014.0
20260510063003 2 0 0.0 0.0 0.00 0.25 0.00 77 1014.1
20260510062503 2 250 0.0 1.6 0.00 0.25 0.00 77 1014.1
20260510062004 2 250 0.0 1.6 0.00 0.25 0.00 75 1014.1
20260510061504 2 250 0.0 1.6 0.00 0.25 0.00 74 1014.1
20260510061004 3 250 0.0 1.6 0.00 0.25 0.00 73 1014.1
20260510060503 3 0 0.0 0.0 0.00 0.25 0.00 71 1014.1
20260510060004 3 250 0.0 1.6 0.00 0.25 0.00 68 1014.1
20260510055503 3 250 0.0 1.6 0.00 0.25 0.00 68 1014.1
20260510055003 3 250 0.0 1.6 0.00 0.25 0.00 69 1014.1
20260510054503 3 250 0.0 1.6 0.00 0.25 0.00 70 1014.0
20260510054003 3 250 0.0 1.6 0.00 0.25 0.00 70 1014.0
20260510053504 4 253 0.0 1.6 0.00 0.25 0.00 66 1013.9
20260510053004 5 267 0.0 1.6 0.00 0.25 0.00 64 1013.9
20260510052503 5 275 0.0 1.6 0.00 0.25 0.00 64 1013.9
20260510052003 4 0 0.0 0.0 0.00 0.25 0.00 65 1013.8
20260510051503 5 0 0.0 0.0 0.00 0.25 0.00 64 1013.7
20260510051003 5 0 0.0 0.0 0.00 0.25 0.00 62 1013.6
20260510050504 5 0 0.0 0.0 0.00 0.25 0.00 61 1013.6
20260510050009 5 0 0.0 0.0 0.00 0.25 0.00 59 1013.7
20260510045503 6 0 0.0 0.0 0.00 0.25 0.25 59 1013.6
20260510045003 6 0 0.0 0.0 0.00 0.25 0.25 58 1013.6
20260510044503 6 0 0.0 0.0 0.00 0.25 0.25 57 1013.5
20260510044215 7 0 0.0 0.0 0.00 0.25 0.25 56 1013.5
20260510043503 7 0 0.0 0.0 0.00 0.25 0.25 53 1013.4
20260510043004 7 0 0.0 0.0 0.00 0.25 0.25 52 1013.5
20260510042504 7 315 0.0 1.6 0.00 0.25 0.25 51 1013.5
20260510042004 8 317 1.6 3.2 0.00 0.25 0.25 50 1013.5
20260510041503 8 316 1.6 4.8 0.00 0.25 0.25 49 1013.5
20260510041003 8 317 1.6 4.8 0.00 0.25 0.25 48 1013.4
20260510040504 8 319 3.2 6.4 0.00 0.25 0.25 48 1013.5
20260510040004 9 321 3.2 6.4 0.00 0.25 0.25 48 1013.4
20260510035504 9 322 3.2 6.4 0.00 0.25 0.25 47 1013.4
20260510035004 9 322 3.2 6.4 0.00 0.25 0.25 47 1013.3
20260510034504 9 324 3.2 8.0 0.00 0.25 0.25 47 1013.3
20260510034003 9 325 3.2 8.0 0.00 0.25 0.25 46 1013.3
20260510033503 9 326 3.2 8.0 0.00 0.25 0.25 46 1013.2
20260510033004 10 325 3.2 8.0 0.00 0.25 0.25 46 1013.1
20260510032503 10 323 3.2 8.0 0.00 0.25 0.25 46 1013.1
20260510032217 10 323 3.2 8.0 0.00 0.25 0.25 46 1013.0
20260510031503 10 326 3.2 6.4 0.00 0.25 0.25 45 1012.9
20260510031213 10 327 3.2 6.4 0.00 0.25 0.25 45 1012.9
20260510030503 10 324 3.2 8.0 0.00 0.25 0.25 43 1012.8
20260510030004 10 324 3.2 8.0 0.00 0.25 0.25 43 1012.7
20260510025504 10 328 4.8 11.3 0.00 0.25 0.25 42 1012.5
20260510025003 11 330 4.8 11.3 0.00 0.25 0.25 41 1012.4
20260510024504 11 329 4.8 9.7 0.00 0.25 0.25 41 1012.3
20260510024005 11 328 4.8 12.9 0.00 0.25 0.25 41 1012.2
20260510023503 11 327 6.4 12.9 0.00 0.25 0.25 40 1012.1
20260510023003 11 325 6.4 12.9 0.00 0.25 0.25 40 1011.9
20260510022504 11 324 4.8 12.9 0.00 0.25 0.25 40 1011.8
20260510022213 11 325 4.8 11.3 0.00 0.25 0.25 40 1011.8
20260510021504 11 325 4.8 11.3 0.00 0.25 0.25 40 1011.6
20260510021004 11 326 4.8 9.7 0.00 0.25 0.25 39 1011.5
20260510020717 11 326 4.8 11.3 0.00 0.25 0.25 39 1011.4
20260510020004 11 325 4.8 11.3 0.00 0.25 0.25 39 1011.2
20260510015504 11 326 4.8 9.7 0.00 0.25 0.25 38 1011.2
20260510015216 11 326 4.8 9.7 0.00 0.25 0.25 39 1011.2
20260510014504 11 328 4.8 11.3 0.00 0.25 0.25 38 1011.1
20260510014217 11 329 6.4 14.5 0.00 0.25 0.25 38 1011.0
20260510013504 11 327 4.8 14.5 0.00 0.25 0.25 37 1010.8
20260510013004 12 320 4.8 11.3 0.00 0.25 0.25 37 1010.7
20260510012504 12 323 4.8 11.3 0.00 0.25 0.25 36 1010.7
20260510012004 12 328 6.4 19.3 0.00 0.25 0.25 36 1010.6
20260510011503 12 326 6.4 19.3 0.00 0.25 0.25 36 1010.5
20260510011003 12 327 6.4 16.1 0.00 0.25 0.25 36 1010.4
20260510010717 12 330 4.8 16.1 0.00 0.25 0.25 36 1010.4
20260510010004 12 335 6.4 11.3 0.00 0.25 0.25 37 1010.3
20260510005503 12 329 6.4 11.3 0.00 0.25 0.25 37 1010.2
20260510005217 12 331 6.4 12.9 0.00 0.25 0.25 36 1010.1
20260510004504 12 339 8.0 14.5 0.00 0.25 0.25 35 1010.1
20260510004217 12 340 8.0 14.5 0.00 0.25 0.25 35 1010.1
20260510003503 12 334 6.4 14.5 0.00 0.25 0.25 36 1010.0
20260510003004 12 334 8.0 14.5 0.00 0.25 0.25 36 1010.0
20260510002503 12 334 9.7 16.1 0.00 0.25 0.25 35 1009.9
20260510002004 13 335 9.7 16.1 0.00 0.25 0.25 34 1009.9
20260510001504 13 337 9.7 16.1 0.00 0.25 0.25 34 1009.9
20260510001004 13 342 8.0 14.5 0.00 0.25 0.25 35 1009.7
20260510000504 13 342 8.0 14.5 0.00 0.25 0.25 35 1009.7
20260510000004 13 335 8.0 16.1 0.00 0.25 0.25 35 1009.6
20260509235504 13 331 6.4 16.1 0.00 0.25 0.25 35 1009.5
20260509235003 13 329 6.4 17.7 0.00 0.25 0.25 35 1009.6
20260509234504 13 331 9.7 20.9 0.00 0.25 0.25 35 1009.5
20260509234003 13 336 9.7 20.9 0.00 0.25 0.25 34 1009.5
20260509233504 13 336 9.7 17.7 0.00 0.25 0.25 34 1009.4
20260509233004 13 332 9.7 22.5 0.00 0.25 0.25 34 1009.3
20260509232503 13 334 9.7 22.5 0.00 0.25 0.25 34 1009.3
20260509232003 13 333 9.7 17.7 0.00 0.25 0.25 34 1009.2
20260509231504 13 327 8.0 16.1 0.00 0.25 0.25 34 1009.2
20260509231003 13 334 8.0 20.9 0.00 0.25 0.25 33 1009.1
20260509230503 14 338 8.0 20.9 0.00 0.25 0.25 34 1009.1
20260509230004 14 338 8.0 20.9 0.00 0.25 0.25 35 1009.1
20260509225503 13 337 11.3 24.1 0.00 0.25 0.25 35 1009.0
20260509225003 13 342 11.3 24.1 0.00 0.25 0.25 33 1008.8